FW2982 Weather Reports


Display with metric or nautical units.
time (UTC)temp
F
wind
direction
speed
MPH
gust
MPH
rain 1hr
in
rain 24hr
in
rain mn
in
humidity
%
barometer
mb
20260510200234 70 278 0.0 2.0 0.02 0.02 0.02 80 1010.1
20260510195722 71 278 0.0 2.0 0.02 0.00 0.02 81 1010.1
20260510195500 70 278 0.0 2.0 0.02 0.00 0.02 78 1010.2
20260510194721 70 278 1.0 3.0 0.02 0.00 0.02 77 1010.2
20260510194248 70 71 0.0 5.0 0.02 0.00 0.02 78 1010.2
20260510194222 70 276 1.0 5.0 0.02 0.00 0.02 79 1010.1
20260510193927 72 319 1.0 2.0 0.02 0.00 0.02 74 1010.4
20260510192721 76 300 0.0 1.0 0.01 0.00 0.01 66 1010.4
20260510192221 79 300 0.0 1.0 0.00 0.00 0.00 59 1010.4
20260510191721 79 300 0.0 0.0 0.00 0.00 0.00 50 1010.3
20260510191221 80 300 0.0 1.0 0.00 0.00 0.00 48 1010.2
20260510190721 80 300 0.0 1.0 0.00 0.00 0.00 47 1010.3
20260510190220 80 300 0.0 1.0 0.00 0.00 0.00 46 1010.2
20260510190002 80 300 0.0 2.0 0.00 0.00 0.00 47 1010.2
20260510185220 80 300 0.0 2.0 0.00 0.00 0.00 47 1010.3
20260510184721 80 300 0.0 2.0 0.00 0.00 0.00 49 1010.3
20260510184218 80 296 0.0 2.0 0.00 0.00 0.00 48 1010.4
20260510183719 81 296 0.0 2.0 0.00 0.00 0.00 46 1010.4
20260510183219 82 296 0.0 4.0 0.00 0.00 0.00 44 1010.3
20260510182719 82 42 0.0 5.0 0.00 0.00 0.00 44 1010.2
20260510182219 84 227 2.0 5.0 0.00 0.00 0.00 41 1010.3
20260510181719 84 230 1.0 4.0 0.00 0.00 0.00 44 1010.3
20260510181457 83 319 2.0 6.0 0.00 0.00 0.00 44 1010.3
20260510180720 82 51 3.0 6.0 0.00 0.00 0.00 45 1010.3
20260510180219 83 118 3.0 4.0 0.00 0.00 0.00 42 1010.4
20260510175719 83 298 0.0 2.0 0.00 0.00 0.00 45 1010.6
20260510175218 82 286 0.0 2.0 0.00 0.00 0.00 46 1010.7
20260510174718 81 254 0.0 2.0 0.00 0.00 0.00 46 1010.8
20260510174219 82 254 1.0 3.0 0.00 0.00 0.00 45 1010.9
20260510173718 83 264 1.0 4.0 0.00 0.00 0.00 45 1010.8
20260510173218 84 338 2.0 4.0 0.00 0.00 0.00 43 1010.8
20260510172717 84 231 1.0 3.0 0.00 0.00 0.00 41 1010.9
20260510172210 85 264 2.0 4.0 0.00 0.00 0.00 43 1010.9
20260510171709 87 82 1.0 4.0 0.00 0.00 0.00 40 1011.0
20260510171207 87 343 1.0 5.0 0.00 0.00 0.00 44 1011.0
20260510170704 86 338 3.0 5.0 0.00 0.00 0.00 46 1011.0
20260510170444 85 261 2.0 4.0 0.00 0.00 0.00 43 1011.1
20260510165710 85 138 2.0 11.0 0.00 0.00 0.00 45 1011.0
20260510165202 83 219 4.0 11.0 0.00 0.00 0.00 47 1010.9
20260510164704 83 165 1.0 3.0 0.00 0.00 0.00 44 1011.0
20260510164203 83 317 1.0 3.0 0.00 0.00 0.00 45 1011.0
20260510163702 83 355 2.0 3.0 0.00 0.00 0.00 45 1011.1
20260510163204 82 197 1.0 4.0 0.00 0.00 0.00 45 1011.1
20260510162702 82 176 2.0 4.0 0.00 0.00 0.00 45 1011.2
20260510162226 83 307 2.0 4.0 0.00 0.00 0.00 47 1011.4
20260510162216 83 182 2.0 4.0 0.00 0.00 0.00 47 1011.3
20260510161202 83 195 2.0 4.0 0.00 0.00 0.00 44 1011.4
20260510160702 83 254 1.0 3.0 0.00 0.00 0.00 45 1011.4
20260510160202 81 216 1.0 3.0 0.00 0.00 0.00 46 1011.4
20260510155703 82 348 1.0 4.0 0.00 0.00 0.00 46 1011.4
20260510155202 82 241 1.0 4.0 0.00 0.00 0.00 46 1011.5
20260510154702 81 204 2.0 3.0 0.00 0.00 0.00 47 1011.5
20260510154441 81 21 1.0 3.0 0.00 0.00 0.00 48 1011.6
20260510153702 81 331 0.0 3.0 0.00 0.00 0.00 48 1011.5
20260510153204 81 219 2.0 4.0 0.00 0.00 0.00 46 1011.5
20260510152703 79 285 2.0 4.0 0.00 0.00 0.00 49 1011.4
20260510152202 78 241 1.0 3.0 0.00 0.00 0.00 52 1011.3
20260510151703 79 255 1.0 3.0 0.00 0.00 0.00 48 1011.5
20260510151203 79 333 1.0 3.0 0.00 0.00 0.00 51 1011.5
20260510150703 77 296 0.0 3.0 0.00 0.00 0.00 53 1011.6
20260510150507 77 329 0.0 3.0 0.00 0.00 0.00 54 1011.6
20260510150500 78 188 1.0 3.0 0.00 0.00 0.00 54 1011.5
20260510145202 77 345 1.0 2.0 0.00 0.00 0.00 54 1011.5
20260510144703 77 350 0.0 1.0 0.00 0.00 0.00 54 1011.3
20260510144202 78 350 0.0 3.0 0.00 0.00 0.00 54 1011.3
20260510143703 78 350 0.0 3.0 0.00 0.00 0.00 52 1011.2
20260510143202 79 251 1.0 3.0 0.00 0.00 0.00 51 1011.1
20260510142703 79 11 1.0 2.0 0.00 0.00 0.00 52 1011.0
20260510142202 78 13 1.0 2.0 0.00 0.00 0.00 53 1011.0
20260510141703 79 300 0.0 2.0 0.00 0.00 0.00 55 1010.9
20260510141202 79 299 0.0 2.0 0.00 0.00 0.00 57 1010.7
20260510140702 79 299 0.0 3.0 0.00 0.00 0.00 55 1010.8
20260510140441 79 299 1.0 3.0 0.00 0.00 0.00 57 1010.8
20260510135659 76 85 1.0 2.0 0.00 0.00 0.00 59 1010.8
20260510135437 75 306 0.0 2.0 0.00 0.00 0.00 62 1010.8
20260510134700 76 306 1.0 3.0 0.00 0.00 0.00 63 1010.9
20260510134159 75 302 0.0 3.0 0.00 0.00 0.00 63 1011.0
20260510133700 74 243 1.0 2.0 0.00 0.00 0.00 66 1011.1
20260510133159 73 155 0.0 2.0 0.00 0.00 0.00 66 1011.0
20260510132657 73 158 0.0 2.0 0.00 0.00 0.00 66 1011.1
20260510132433 71 158 0.0 2.0 0.00 0.00 0.00 68 1011.0
20260510131650 71 166 0.0 2.0 0.00 0.00 0.00 69 1011.0
20260510131151 70 168 0.0 0.0 0.00 0.00 0.00 70 1010.9
20260510130650 70 168 0.0 0.0 0.00 0.00 0.00 70 1010.9
20260510130151 69 168 0.0 0.0 0.00 0.00 0.00 74 1011.0
20260510125648 68 168 0.0 0.0 0.00 0.00 0.00 75 1011.1
20260510125148 67 168 0.0 0.0 0.00 0.00 0.00 77 1011.0
20260510124648 66 168 0.0 1.0 0.00 0.00 0.00 78 1011.1
20260510124148 66 168 0.0 1.0 0.00 0.00 0.00 79 1011.1
20260510123648 66 168 0.0 1.0 0.00 0.00 0.00 76 1011.3
20260510123147 65 168 0.0 2.0 0.00 0.00 0.00 78 1011.3
20260510122924 64 168 0.0 2.0 0.00 0.00 0.00 80 1011.3
20260510122142 64 168 1.0 2.0 0.00 0.00 0.00 79 1011.3
20260510121638 65 168 0.0 0.0 0.00 0.00 0.00 78 1011.2
20260510121139 63 168 0.0 0.0 0.00 0.00 0.00 82 1011.2
20260510120913 60 168 0.0 0.0 0.00 0.00 0.00 83 1011.1
20260510120135 60 168 0.0 1.0 0.00 0.00 0.00 83 1011.1
20260510115638 59 168 0.0 1.0 0.00 0.00 0.00 86 1011.1
20260510115134 58 168 0.0 1.0 0.00 0.00 0.00 85 1011.0
20260510114635 57 168 0.0 0.0 0.00 0.00 0.00 85 1011.0
20260510114134 57 168 0.0 0.0 0.00 0.00 0.00 87 1011.0
20260510113633 56 168 0.0 0.0 0.00 0.00 0.00 87 1010.9
20260510113132 56 168 0.0 0.0 0.00 0.00 0.00 87 1010.9
20260510112910 56 168 0.0 0.0 0.00 0.00 0.00 89 1010.8
20260510112131 55 168 0.0 0.0 0.00 0.00 0.00 92 1010.6
20260510111632 53 168 0.0 0.0 0.00 0.00 0.00 93 1010.5
20260510111131 51 168 0.0 0.0 0.00 0.00 0.00 94 1010.3
20260510110631 50 168 0.0 0.0 0.00 0.00 0.00 94 1010.2
20260510110132 49 168 0.0 0.0 0.00 0.00 0.00 94 1010.1
20260510105912 49 168 0.0 0.0 0.00 0.00 0.00 94 1010.0
20260510105129 49 168 0.0 0.0 0.00 0.00 0.00 94 1009.9
20260510104632 48 168 0.0 0.0 0.00 0.00 0.00 94 1009.9
20260510104130 48 168 0.0 0.0 0.00 0.00 0.00 94 1009.8
20260510103631 48 168 0.0 0.0 0.00 0.00 0.00 94 1009.8
20260510103413 48 168 0.0 0.0 0.00 0.00 0.00 94 1009.7
20260510102614 49 168 0.0 0.0 0.00 0.00 0.00 94 1009.6
20260510102110 49 168 0.0 0.0 0.00 0.00 0.00 94 1009.5
20260510101609 49 168 0.0 0.0 0.00 0.00 0.00 94 1009.4
20260510101108 49 168 0.0 0.0 0.00 0.00 0.00 94 1009.3
20260510100608 49 168 0.0 0.0 0.00 0.00 0.00 94 1009.2
20260510100109 49 168 0.0 0.0 0.00 0.00 0.00 94 1009.3
20260510095609 49 168 0.0 0.0 0.00 0.00 0.00 94 1009.3
20260510095349 49 168 0.0 0.0 0.00 0.00 0.00 94 1009.3
20260510094847 48 168 0.0 0.0 0.00 0.00 0.00 94 1009.4
20260510094108 49 168 0.0 0.0 0.00 0.00 0.00 94 1009.3
20260510093608 49 168 0.0 0.0 0.00 0.00 0.00 94 1009.3
20260510093108 49 168 0.0 0.0 0.00 0.00 0.00 93 1009.2
20260510092607 49 168 0.0 0.0 0.00 0.00 0.00 93 1009.2
20260510092107 49 168 0.0 0.0 0.00 0.00 0.00 93 1009.2
20260510091607 49 168 0.0 0.0 0.00 0.00 0.00 94 1009.2
20260510091109 49 168 0.0 0.0 0.00 0.00 0.00 94 1009.2
20260510090610 49 168 0.0 0.0 0.00 0.00 0.00 94 1009.2
20260510090107 49 168 0.0 0.0 0.00 0.00 0.00 94 1009.1
20260510085846 49 168 0.0 0.0 0.00 0.00 0.00 94 1009.1
20260510085106 49 168 0.0 0.0 0.00 0.00 0.00 93 1009.2
20260510084604 49 168 0.0 0.0 0.00 0.00 0.00 94 1009.2
20260510084104 49 168 0.0 0.0 0.00 0.00 0.00 93 1009.2
20260510083604 49 168 0.0 0.0 0.00 0.00 0.00 93 1009.2
20260510083105 49 168 0.0 0.0 0.00 0.00 0.00 93 1009.2
20260510082842 49 168 0.0 0.0 0.00 0.00 0.00 93 1009.1
20260510082130 49 168 0.0 0.0 0.00 0.00 0.00 93 1009.1
20260510082120 49 168 0.0 0.0 0.00 0.00 0.00 93 1009.1
20260510081104 50 168 0.0 0.0 0.00 0.00 0.00 93 1008.9
20260510080840 50 168 0.0 0.0 0.00 0.00 0.00 93 1008.8
20260510080104 50 168 0.0 0.0 0.00 0.00 0.00 93 1008.8
20260510075603 50 168 0.0 0.0 0.00 0.00 0.00 93 1008.7
20260510075102 50 168 0.0 0.0 0.00 0.00 0.00 93 1008.6
20260510074543 50 168 0.0 0.0 0.00 0.00 0.00 93 1008.6
20260510074327 50 168 0.0 0.0 0.00 0.00 0.00 93 1008.6
20260510073823 50 168 0.0 0.0 0.00 0.00 0.00 93 1008.4
20260510073040 50 168 0.0 0.0 0.00 0.00 0.00 93 1008.5
20260510072542 51 168 0.0 0.0 0.00 0.00 0.00 93 1008.5
20260510072041 51 168 0.0 0.0 0.00 0.00 0.00 93 1008.5
20260510071539 51 168 0.0 0.0 0.00 0.00 0.00 93 1008.5
20260510071037 51 168 0.0 1.0 0.00 0.00 0.00 93 1008.4
20260510070538 51 168 0.0 1.0 0.00 0.00 0.00 93 1008.4
20260510070033 51 168 0.0 0.0 0.00 0.00 0.00 93 1008.2
20260510065532 51 168 0.0 0.0 0.00 0.00 0.00 93 1008.1
20260510065035 51 168 0.0 0.0 0.00 0.00 0.00 93 1008.1
20260510064532 52 168 0.0 0.0 0.00 0.00 0.00 93 1007.9
20260510064033 52 168 0.0 0.0 0.00 0.00 0.00 93 1008.0
20260510063532 52 168 0.0 0.0 0.00 0.00 0.00 93 1007.9
20260510063033 52 168 0.0 0.0 0.00 0.00 0.00 93 1007.9
20260510062532 52 168 0.0 0.0 0.00 0.00 0.00 93 1007.9
20260510062030 52 168 0.0 0.0 0.00 0.00 0.00 93 1007.8
20260510061532 52 168 0.0 0.0 0.00 0.00 0.00 93 1008.0
20260510061031 52 168 0.0 0.0 0.00 0.00 0.00 93 1008.0
20260510060531 53 168 0.0 0.0 0.00 0.00 0.00 93 1008.0
20260510060031 53 168 0.0 0.0 0.00 0.00 0.00 93 1008.0
20260510055529 53 168 0.0 0.0 0.00 0.00 0.00 92 1007.9
20260510055030 53 168 0.0 0.0 0.00 0.00 0.00 92 1008.0
20260510054528 53 168 0.0 0.0 0.00 0.00 0.00 92 1008.0
20260510054020 53 168 0.0 0.0 0.00 0.00 0.00 92 1007.9
20260510053520 53 168 0.0 0.0 0.00 0.00 0.00 92 1008.0
20260510053019 54 168 0.0 0.0 0.00 0.00 0.00 92 1008.0
20260510052518 54 168 0.0 0.0 0.00 0.00 0.00 92 1008.1
20260510052012 54 168 0.0 0.0 0.00 0.00 0.00 92 1008.2
20260510051748 54 168 0.0 0.0 0.00 0.00 0.00 92 1008.2
20260510051251 54 168 0.0 0.0 0.00 0.00 0.00 91 1008.1
20260510050510 54 168 0.0 0.0 0.00 0.00 0.00 92 1008.1
20260510050007 54 168 0.0 0.0 0.00 0.00 0.00 91 1008.1
20260510045503 55 168 0.0 0.0 0.00 0.00 0.00 91 1008.1
20260510045002 55 168 0.0 1.0 0.00 0.00 0.00 91 1008.1
20260510044505 55 168 0.0 1.0 0.00 0.00 0.00 91 1008.0
20260510044003 55 168 0.0 0.0 0.00 0.00 0.00 91 1008.0
20260510043939 55 168 0.0 0.0 0.00 0.00 0.00 91 1007.8
20260510043842 55 168 0.0 0.0 0.00 0.00 0.00 91 1008.0
20260510043728 55 168 0.0 0.0 0.00 0.00 0.00 91 1008.0
20260510042503 55 168 0.0 0.0 0.00 0.00 0.00 91 1007.9
20260510041503 55 168 0.0 0.0 0.00 0.00 0.00 91 1007.9
20260510041002 56 168 0.0 0.0 0.00 0.00 0.00 91 1007.9
20260510040503 56 168 0.0 0.0 0.00 0.00 0.00 91 1007.9
20260510040002 56 168 0.0 0.0 0.00 0.00 0.00 90 1007.9
20260510035504 56 168 0.0 0.0 0.00 0.00 0.00 90 1007.9
20260510035003 56 168 0.0 0.0 0.00 0.00 0.00 90 1007.8
20260510034501 56 168 0.0 0.0 0.00 0.00 0.00 90 1007.9
20260510034003 56 168 0.0 0.0 0.00 0.00 0.00 90 1007.8
20260510033502 57 168 0.0 1.0 0.00 0.00 0.00 89 1007.8
20260510033335 57 168 0.0 2.0 0.00 0.00 0.00 89 1007.7
20260510033041 57 168 0.0 2.0 0.00 0.00 0.00 89 1007.8
20260510032804 57 168 0.0 2.0 0.00 0.00 0.00 89 1007.8
20260510031502 57 168 0.0 1.0 0.00 0.00 0.00 89 1007.8
20260510031002 58 168 0.0 1.0 0.00 0.00 0.00 88 1007.8
20260510030740 58 168 0.0 0.0 0.00 0.00 0.00 88 1007.8
20260510030026 58 168 0.0 0.0 0.00 0.00 0.00 87 1007.8
20260510030015 58 168 0.0 0.0 0.00 0.00 0.00 87 1007.8
20260510025004 58 168 0.0 0.0 0.00 0.00 0.00 87 1007.8
20260510024502 58 168 0.0 0.0 0.00 0.00 0.00 87 1007.8
20260510024005 59 168 0.0 0.0 0.00 0.00 0.00 86 1007.8
20260510023502 59 168 0.0 0.0 0.00 0.00 0.00 86 1007.6
20260510023002 59 168 0.0 0.0 0.00 0.00 0.00 86 1007.6
20260510022502 59 168 0.0 0.0 0.00 0.00 0.00 85 1007.5
20260510022242 59 168 0.0 0.0 0.00 0.00 0.00 85 1007.5
20260510021500 60 168 0.0 0.0 0.00 0.00 0.00 85 1007.4
20260510020958 60 168 0.0 0.0 0.00 0.00 0.00 85 1007.4
20260510020458 60 168 0.0 0.0 0.00 0.00 0.00 84 1007.3
20260510015957 60 168 0.0 0.0 0.00 0.00 0.00 84 1007.3
20260510015459 60 168 0.0 0.0 0.00 0.00 0.00 84 1007.2
20260510014957 60 168 0.0 0.0 0.00 0.00 0.00 84 1007.2
20260510014458 60 168 0.0 0.0 0.00 0.00 0.00 84 1007.2
20260510014238 60 168 0.0 0.0 0.00 0.00 0.00 83 1007.2
20260510013737 60 168 0.0 0.0 0.00 0.00 0.00 83 1007.1
20260510012957 61 168 0.0 0.0 0.00 0.00 0.00 83 1007.1
20260510012456 61 168 0.0 0.0 0.00 0.00 0.00 82 1006.9
20260510011957 61 168 0.0 0.0 0.00 0.00 0.00 81 1006.8
20260510011456 62 168 0.0 0.0 0.00 0.00 0.00 81 1006.7
20260510010956 62 168 0.0 0.0 0.00 0.00 0.00 80 1006.6
20260510010457 62 168 0.0 0.0 0.00 0.00 0.00 80 1006.5
20260510005956 62 168 0.0 0.0 0.00 0.00 0.00 79 1006.5
20260510005455 63 168 0.0 0.0 0.00 0.00 0.00 78 1006.5
20260510004956 63 168 0.0 0.0 0.00 0.00 0.00 78 1006.4
20260510004455 64 168 0.0 0.0 0.00 0.00 0.00 77 1006.4
20260510003954 64 168 0.0 0.0 0.00 0.00 0.00 76 1006.3
20260510003456 64 168 0.0 0.0 0.00 0.00 0.00 75 1006.3
20260510002958 65 168 0.0 0.0 0.00 0.00 0.00 74 1006.3
20260510002455 65 168 0.0 0.0 0.00 0.00 0.00 73 1006.2
20260510001955 66 168 0.0 0.0 0.00 0.00 0.00 72 1006.2
20260510001455 67 168 0.0 0.0 0.00 0.00 0.00 71 1006.2
20260510000955 67 168 0.0 0.0 0.00 0.00 0.00 70 1006.2
20260510000456 68 168 0.0 0.0 0.00 0.00 0.00 68 1006.2
20260510000241 68 168 0.0 0.0 0.00 0.00 0.00 68 1006.0
20260509235737 69 168 0.0 0.0 0.00 0.00 0.00 67 1006.0
20260509234954 69 168 0.0 0.0 0.00 0.00 0.00 64 1006.1
20260509234455 70 168 0.0 0.0 0.00 0.00 0.00 63 1006.0
20260509233954 70 168 0.0 0.0 0.00 0.00 0.00 62 1005.9
20260509233454 71 168 0.0 1.0 0.00 0.00 0.00 62 1006.0
20260509232955 71 168 0.0 2.0 0.00 0.00 0.00 61 1005.9
20260509232454 71 168 0.0 2.0 0.00 0.00 0.00 61 1005.9
20260509231955 71 169 0.0 1.0 0.00 0.00 0.00 60 1005.9
20260509231733 71 169 0.0 0.0 0.00 0.00 0.00 59 1005.9
20260509230953 71 169 0.0 0.0 0.00 0.00 0.00 59 1005.9
20260509230454 71 169 0.0 1.0 0.00 0.00 0.00 58 1005.8
20260509225954 72 169 0.0 1.0 0.00 0.00 0.00 58 1005.8
20260509225455 72 169 0.0 2.0 0.00 0.00 0.00 57 1005.9
20260509225305 72 162 1.0 3.0 0.00 0.00 0.00 55 1005.8
20260509225011 72 169 0.0 3.0 0.00 0.00 0.00 55 1005.8
20260509223953 73 333 0.0 1.0 0.00 0.00 0.00 54 1005.9
20260509223454 73 333 0.0 2.0 0.00 0.00 0.00 53 1005.9
20260509222954 74 333 0.0 2.0 0.00 0.00 0.00 53 1005.8
20260509222455 74 334 0.0 3.0 0.00 0.00 0.00 51 1005.7
20260509221953 74 333 0.0 3.0 0.00 0.00 0.00 52 1005.8
20260509221452 74 148 0.0 3.0 0.00 0.00 0.00 53 1005.9
20260509220940 74 148 0.0 3.0 0.00 0.00 0.00 53 1005.8
20260509220442 74 100 0.0 2.0 0.00 0.00 0.00 53 1005.9
20260509215940 74 100 0.0 2.0 0.00 0.00 0.00 53 1005.8
20260509215439 75 100 0.0 2.0 0.00 0.00 0.00 52 1005.8
20260509214938 75 100 0.0 2.0 0.00 0.00 0.00 53 1005.7
20260509214436 74 100 0.0 2.0 0.00 0.00 0.00 55 1005.8
20260509214217 75 100 1.0 2.0 0.00 0.00 0.00 55 1005.8
20260509213435 75 97 0.0 2.0 0.00 0.00 0.00 54 1005.8
20260509212936 74 96 0.0 3.0 0.00 0.00 0.00 54 1005.8
20260509212432 74 83 2.0 4.0 0.00 0.00 0.00 54 1005.7
20260509211931 74 90 1.0 4.0 0.00 0.00 0.00 55 1005.7
20260509211431 74 213 1.0 4.0 0.00 0.00 0.00 53 1005.7
20260509210932 74 148 1.0 3.0 0.00 0.00 0.00 53 1005.7
20260509210433 75 262 1.0 3.0 0.00 0.00 0.00 52 1005.7
20260509205932 75 314 0.0 3.0 0.00 0.00 0.00 54 1005.8
20260509205432 75 7 2.0 3.0 0.00 0.00 0.00 52 1005.7
20260509205214 76 307 1.0 3.0 0.00 0.00 0.00 54 1005.8
20260509204430 75 48 1.0 5.0 0.00 0.00 0.00 55 1005.7
20260509203930 74 75 1.0 5.0 0.00 0.00 0.00 54 1005.7
20260509203421 75 275 2.0 5.0 0.00 0.00 0.00 54 1005.8
20260509202920 75 288 2.0 5.0 0.00 0.00 0.00 55 1005.6
20260509202420 75 204 2.0 5.0 0.00 0.00 0.00 53 1005.6
20260509201919 74 224 1.0 4.0 0.00 0.00 0.00 55 1005.6
20260509201419 74 238 1.0 7.0 0.00 0.00 0.00 57 1005.7
20260509200906 74 92 3.0 7.0 0.00 0.00 0.00 55 1005.7